Regional Weather Roundup
Issued by NWS

Home | Current Version | Previous Version | Graphics & Text | Print | Product List | Glossary On
Versions: 1 2 3 4 5 6 7 8 9 10 11 12 13 14 15 16 17 18 19 20 21 22 23 24 25 26 27 28 29 30 31 32 33 34 35 36 37 38 39 40 41 42 43 44 45 46 47 48 49 50
000
ASUS45 KTFX 261219
RWRMT
MONTANA HOURLY WEATHER ROUNDUP
NATIONAL WEATHER SERVICE GREAT FALLS MT
619 AM MDT THU MAR 26 2015

NOTE: "FAIR" INDICATES FEW OR NO CLOUDS BELOW 12000 FEET WITH NO
SIGNIFICANT WEATHER AND/OR OBSTRUCTIONS TO VISIBILITY.

* THESE STATIONS ARE NOT UNDER NWS QUALITY CONTROL. THEY DO NOT
   REPORT WEATHER SUCH AS PRECIPITATION OR FOG.

MTZ001>007-043-261300-
WEST OF THE DIVIDE
CITY           SKY/WX    TMP DP  RH WIND       PRES   REMARKS
KALISPELL      CLOUDY    39  37  93 CALM      30.28S
MISSOULA       CLOUDY    41  37  86 NW3       30.33R
BUTTE          CLOUDY    37  28  70 N5        30.29R WCI  33
MULLAN PASS    FOG       34  34 100 SW8       30.29S VSB M1/4 WCI  27
* ESSEX        N/A       36  34  92 SW1        N/A
* EUREKA APT   PTCLDY    39  37  93 E3        30.26S
* HAMILTON APT PTCLDY    46  34  63 S10       30.32S
* LIBBY APT    MOCLDY    37  36  96 CALM      30.28S
* LINCOLN      N/A       36  34  92 S4G12      N/A
* LOOKOUT PASS N/A       40  38  93 N2         N/A
* POLSON       N/A       39  38  96 S1         N/A
* SEELEY LAKE  N/A       33  32  96 N/A        N/A
* THOMP F APT  PTCLDY    29  20  69 NE1        N/A
$$

MTZ008-052>055-261300-
SOUTHWEST MONTANA
CITY           SKY/WX    TMP DP  RH WIND       PRES   REMARKS
BOZEMAN        CLOUDY    39  36  89 S6        30.26F WCI  35
DILLON         CLOUDY    39  27  62 S13       30.30R WCI  31
* W YELLOWSTON CLEAR     30  23  75 SW2G10     N/A
* BOULDER HILL N/A       40  25  55 S6         N/A   WCI  36
* HOMESTAKE PS N/A       36  28  73 NW7G12     N/A   WCI  30
* MONIDA PASS  N/A       25  20  81 W1G6       N/A
* RAYNOLDS PAS N/A       28   7  41 SE11       N/A   WCI  18
* WHITEHALL    N/A       43  28  56 W8G15      N/A
* WISE RIVER   N/A       40  30  68 W9G17      N/A   WCI  34
$$

MTZ009>010-012-014-046-048-049-054-261300-
EAST SLOPES AND CENTRAL MONTANA
CITY           SKY/WX    TMP DP  RH WIND       PRES   REMARKS
CUT BANK       PTCLDY    37  30  76 W7        30.08R WCI  32
GREAT FALLS    CLOUDY    43  32  65 SW13      30.12F
HELENA         CLOUDY    46  34  63 SW12      30.24F
* CONRAD       PTCLDY    43  34  71 CALM       N/A
* DEARBORN     N/A       48  32  54 SE4G10     N/A
* EAST GLACIER N/A       41  31  68 W28G35     N/A
* MONARCH      N/A       39  28  65 SW17G24    N/A   WCI  30
* PENDROY      N/A       44  28  53 NW14       N/A
* ROGERS PASS  N/A       35  32  89 SE15G23    N/A   WCI  25
* SWEET GRASS  N/A       40  30  68 W16        N/A   WCI  32
* WHITE SULPH  N/A       38  32  79 NW4G11     N/A
$$

MTZ011-013-016-021-035-040-045-047-050-051-261300-
NORTH CENTRAL MONTANA
CITY           SKY/WX    TMP DP  RH WIND       PRES   REMARKS
HAVRE          MOCLDY    34  28  79 W6        30.09F WCI  29
LEWISTOWN      CLOUDY    45  30  56 CALM      30.14S
* N BAR RANCH  FAIR      41  30  65 NW20      30.11R
* CHINOOK      MOCLDY    34  28  79 W3        30.09F
* FORT BENTON  CLOUDY    45  34  65 SW8       30.12S
* CHESTER      N/A       32  25  75 S2         N/A
* DENTON       N/A       43  31  63 SW10       N/A
* GEYSER       N/A       45  30  56 W20G26     N/A
* JUDITH GAP   N/A       40  28  62 W14G20     N/A   WCI  32
* LOMA         N/A       47  33  58 SW7        N/A
$$

MTZ017>020-022>027-061-062-261300-
NORTHEAST MONTANA
CITY           SKY/WX    TMP DP  RH WIND       PRES   REMARKS
GLASGOW        MOCLDY    28  25  89 NE6       30.10R WCI  21
GLENDIVE       CLOUDY    30  28  92 NE9       30.11R WCI  22
JORDAN         PTCLDY    34  28  79 NW9       30.07S WCI  27
SIDNEY         CLOUDY    30  28  92 S3        30.12R
WOLF POINT     FOG       34  30  85 NE5       30.11R WCI  29
* BEAVER HILL  N/A       29  27  92 E13        N/A   WCI  19
* CIRCLE       N/A       31  27  85 N5         N/A   WCI  26
* LINDSAY DVD  N/A       30  26  85 NE11       N/A   WCI  21
* NAVAJO       N/A       27  27 100 SE2        N/A
* PLENTYWOOD A PTCLDY    30  28  92 CALM      30.12R
* POPLAR APT   MOCLDY    30  30 100 CALM      30.12R
* SACO         N/A       26  23  88 NE6        N/A   WCI  19
$$

MTZ028>042-056>058-261300-
SOUTHCENTRAL AND SOUTHEAST MONTANA
CITY           SKY/WX    TMP DP  RH WIND       PRES   REMARKS
BAKER          CLOUDY    30  27  89 E6        30.05R WCI  24
BILLINGS       CLOUDY    46  28  50 W15       30.15R
LIVINGSTON     CLOUDY    46  28  50 W23G32    30.20S
MILES CITY     MOCLDY    37  28  70 NW7       30.07R WCI  32
* BIG TIMBER A CLOUDY    43  30  60 SW32G38   30.16R
* FORSYTH APT  MOCLDY    45  28  51 W9        30.11R
* ALZADA       N/A       43  28  56 W14G19     N/A
* HYSHAM       N/A       43  23  45 SW2        N/A
* LAME DEER    N/A       40  25  55 W11        N/A   WCI  33
* REED POINT   N/A       47  28  48 W9G17      N/A
* ROSCOE HILL  N/A       46  12  25 W6G14      N/A
$$

REGIONAL REPORTS...DAKOTAS
CITY           SKY/WX    TMP DP  RH WIND       PRES   REMARKS
WILLISTON      CLOUDY    30  27  89 E5        30.14R WCI  25
DICKINSON      LGT SNOW  28  25  89 E6        30.09R VSB 3/4  WCI  21
BEACH          CLOUDY    28  28 100 SE9       30.10R WCI  19
CROSBY         CLEAR     23  23 100 S5        30.15S WCI  16
TIOGA          CLOUDY    25  25 100 E5        30.17R WCI  19
WATFORD CITY   PTCLDY    27  27 100 E8        30.10F WCI  19
BISMARCK       CLOUDY    27  23  85 CALM      30.18F
GRAND FORKS    LGT SNOW  23  19  85 N9        30.23R WCI  13
FARGO          PTCLDY    21  18  88 N9        30.21R WCI  11
BUFFALO SD     CLOUDY    30  25  82 E7        29.98S WCI  23
RAPID CITY     CLOUDY    30  25  82 W3        30.07F
$$

REGIONAL REPORTS...WYOMING/IDAHO/WASHINGTON
CITY           SKY/WX    TMP DP  RH WIND       PRES   REMARKS
GILLETTE       CLOUDY    39  30  70 NW22G30   30.13S WCI  29
SHERIDAN       CLOUDY    45  30  56 NW16      30.15S
CODY           CLOUDY    45  21  38 W9G18     30.19S
YELLOWSTONE LA MOCLDY    23  19  85 CALM      30.35R
SALMON         CLOUDY    43  32  65 CALM      30.36R
MULLAN PASS    FOG       34  34 100 SW8       30.29S VSB M1/4 WCI  27
SAND POINT     FOG       43  43 100 CALM      30.29S
SPOKANE        LGT RAIN  45  43  93 S8        30.29S
$$

REGIONAL REPORTS...ALBERTA
CITY           SKY/WX    TMP DP  RH WIND       PRES   REMARKS
CALGARY        MOCLDY    37  25  62 SW3       30.01R
LETHBRIDGE     CLOUDY    45  32  60 W21G28    30.04S
MEDICINE HAT   CLEAR     30  28  92 SW5       30.05F WCI  25
EDMONTON       MOCLDY    34  28  79 S6        30.01S WCI  29
WATERTON GATE  N/A       43  32  65 SW26G36    N/A
CARDSTON       N/A       45  34  65 W13G23     N/A
MILK RIVER     N/A       34  28  79 W8         N/A   WCI  27
$$

REGIONAL REPORTS...SASKATCHEWAN
CITY           SKY/WX    TMP DP  RH WIND       PRES   REMARKS
SWIFT CURRENT  FAIR      28  27  96 SW3       30.06R
MOOSE JAW      FAIR      25  23  92 SE6       30.14R WCI  18
REGINA         FAIR      23  21  92 E10       30.15S WCI  13
VAL MARIE      N/A       25  23  92 NE1        N/A
ASSINIBOIA     N/A       28  28 100 SE7        N/A   WCI  21
CORONACH       N/A       30  28  92 SE7        N/A   WCI  23

$$



USA.gov is the U.S. government's official web portal to all federal, state and local government web resources and services.